User: anonymous   Login
Location: Unspecified
(0.0000°N, 0.0000°E)
Time: 17:02:40
(UTC+00:00)
Language:

COSMOS-2414 - Orbit

View from above orbital plane
View from above orbital plane
View from above satellite
View from above satellite

Ground track
Ground track

The orbit data is extracted from the following two-line orbital elements,

1 28521U 05002A   18175.50432238  .00000058  00000-0  35561-4 0  9991
2 28521  82.9502  87.3778 0040730   0.1170 359.9993 13.87601221679919
Epoch (UTC): 24 June 2018 12:06:13
Eccentricity: 0.0040730
inclination: 82.9502°
perigee height: 907 km
apogee height: 967 km
right ascension of ascending node: 87.3778°
argument of perigee: 0.1170°
revolutions per day: 13.87601221
mean anomaly at epoch: 359.9993°
orbit number at epoch: 67991

The dashed part of the orbit path shows where the satellite is in the earth's shadow,  

DLR